Year,Month,Day,Hour,Minute,Value (Times are PST for temperature in C)
2009,09,22,00,00,13.50
2009,09,22,00,01,13.50
2009,09,22,00,02,13.50
2009,09,22,00,03,13.50
2009,09,22,00,04,13.40
2009,09,22,00,05,13.40
2009,09,22,00,06,13.30
2009,09,22,00,07,13.30
2009,09,22,00,08,13.30
2009,09,22,00,09,13.30
2009,09,22,00,10,13.30
2009,09,22,00,11,13.20
2009,09,22,00,12,13.20
2009,09,22,00,13,13.10
2009,09,22,00,14,13.10
2009,09,22,00,15,13.10
2009,09,22,00,16,13.00
2009,09,22,00,17,13.00
2009,09,22,00,18,13.00
2009,09,22,00,19,13.00
2009,09,22,00,20,12.90
2009,09,22,00,21,12.90
2009,09,22,00,22,12.90
2009,09,22,00,23,12.80
2009,09,22,00,24,12.80
2009,09,22,00,25,12.80
2009,09,22,00,26,12.80
2009,09,22,00,27,12.80
2009,09,22,00,28,12.80
2009,09,22,00,29,12.80
2009,09,22,00,30,12.80
2009,09,22,00,31,12.80
2009,09,22,00,32,12.80
2009,09,22,00,33,12.80
2009,09,22,00,34,12.80
2009,09,22,00,35,12.90
2009,09,22,00,36,12.90
2009,09,22,00,37,13.00
2009,09,22,00,38,13.00
2009,09,22,00,39,13.10
2009,09,22,00,40,13.20
2009,09,22,00,41,13.20
2009,09,22,00,42,13.30
2009,09,22,00,43,13.30
2009,09,22,00,44,13.40
2009,09,22,00,45,13.40
2009,09,22,00,46,13.50
2009,09,22,00,47,13.50
2009,09,22,00,48,13.60
2009,09,22,00,49,13.60
2009,09,22,00,50,13.60
2009,09,22,00,51,13.70
2009,09,22,00,52,13.70
2009,09,22,00,53,13.70
2009,09,22,00,54,13.70
2009,09,22,00,55,13.70
2009,09,22,00,56,13.70
2009,09,22,00,57,13.80
2009,09,22,00,58,13.80
2009,09,22,00,59,13.80
2009,09,22,01,00,13.80
2009,09,22,01,01,13.90
2009,09,22,01,02,13.90
2009,09,22,01,03,13.90
2009,09,22,01,04,14.00
2009,09,22,01,05,14.00
2009,09,22,01,06,14.00
2009,09,22,01,07,14.00
2009,09,22,01,08,14.00
2009,09,22,01,09,14.00
2009,09,22,01,10,14.00
2009,09,22,01,11,14.00
2009,09,22,01,12,14.00
2009,09,22,01,13,14.00
2009,09,22,01,14,14.00
2009,09,22,01,15,14.00
2009,09,22,01,16,14.00
2009,09,22,01,17,14.00
2009,09,22,01,18,14.00
2009,09,22,01,19,14.00
2009,09,22,01,20,14.00
2009,09,22,01,21,13.90
2009,09,22,01,22,13.90
2009,09,22,01,23,13.90
2009,09,22,01,24,13.90
2009,09,22,01,25,13.90
2009,09,22,01,26,13.90
2009,09,22,01,27,13.90
2009,09,22,01,28,13.90
2009,09,22,01,29,13.90
2009,09,22,01,30,13.90
2009,09,22,01,31,13.90
2009,09,22,01,32,13.90
2009,09,22,01,33,14.00
2009,09,22,01,34,14.00
2009,09,22,01,35,14.00
2009,09,22,01,36,14.10
2009,09,22,01,37,14.10
2009,09,22,01,38,14.10
2009,09,22,01,39,14.20
2009,09,22,01,40,14.20
2009,09,22,01,41,14.20
2009,09,22,01,42,14.10
2009,09,22,01,43,14.10
2009,09,22,01,44,14.10
2009,09,22,01,45,14.10
2009,09,22,01,46,14.10
2009,09,22,01,47,14.10
2009,09,22,01,48,14.10
2009,09,22,01,49,14.20
2009,09,22,01,50,14.20
2009,09,22,01,51,14.20
2009,09,22,01,52,14.20
2009,09,22,01,53,14.20
2009,09,22,01,54,14.20
2009,09,22,01,55,14.20
2009,09,22,01,56,14.20
2009,09,22,01,57,14.20
2009,09,22,01,58,14.20
2009,09,22,01,59,14.20
2009,09,22,02,00,14.30
2009,09,22,02,01,14.30
2009,09,22,02,02,14.30
2009,09,22,02,03,14.30
2009,09,22,02,04,14.20
2009,09,22,02,05,14.20
2009,09,22,02,06,14.20
2009,09,22,02,07,14.20
2009,09,22,02,08,14.30
2009,09,22,02,09,14.30
2009,09,22,02,10,14.30
2009,09,22,02,11,14.30
2009,09,22,02,12,14.30
2009,09,22,02,13,14.30
2009,09,22,02,14,14.30
2009,09,22,02,15,14.40
2009,09,22,02,16,14.40
2009,09,22,02,17,14.50
2009,09,22,02,18,14.50
2009,09,22,02,19,14.50
2009,09,22,02,20,14.50
2009,09,22,02,21,14.50
2009,09,22,02,22,14.50
2009,09,22,02,23,14.50
2009,09,22,02,24,14.50
2009,09,22,02,25,14.50
2009,09,22,02,26,14.50
2009,09,22,02,27,14.40
2009,09,22,02,28,14.40
2009,09,22,02,29,14.40
2009,09,22,02,30,14.40
2009,09,22,02,31,14.40
2009,09,22,02,32,14.40
2009,09,22,02,33,14.40
2009,09,22,02,34,14.50
2009,09,22,02,35,14.50
2009,09,22,02,36,14.50
2009,09,22,02,37,14.50
2009,09,22,02,38,14.50
2009,09,22,02,39,14.50
2009,09,22,02,40,14.50
2009,09,22,02,41,14.50
2009,09,22,02,42,14.50
2009,09,22,02,43,14.50
2009,09,22,02,44,14.50
2009,09,22,02,45,14.60
2009,09,22,02,46,14.60
2009,09,22,02,47,14.60
2009,09,22,02,48,14.60
2009,09,22,02,49,14.60
2009,09,22,02,50,14.60
2009,09,22,02,51,14.60
2009,09,22,02,52,14.60
2009,09,22,02,53,14.60
2009,09,22,02,54,14.50
2009,09,22,02,55,14.50
2009,09,22,02,56,14.50
2009,09,22,02,57,14.50
2009,09,22,02,58,14.50
2009,09,22,02,59,14.40
2009,09,22,03,00,14.40
2009,09,22,03,01,14.30
2009,09,22,03,02,14.30
2009,09,22,03,03,14.30
2009,09,22,03,04,14.30
2009,09,22,03,05,14.30
2009,09,22,03,06,14.30
2009,09,22,03,07,14.30
2009,09,22,03,08,14.30
2009,09,22,03,09,14.30
2009,09,22,03,10,14.40
2009,09,22,03,11,14.40
2009,09,22,03,12,14.40
2009,09,22,03,13,14.40
2009,09,22,03,14,14.40
2009,09,22,03,15,14.40
2009,09,22,03,16,14.40
2009,09,22,03,17,14.40
2009,09,22,03,18,14.40
2009,09,22,03,19,14.30
2009,09,22,03,20,14.30
2009,09,22,03,21,14.30
2009,09,22,03,22,14.30
2009,09,22,03,23,14.30
2009,09,22,03,24,14.40
2009,09,22,03,25,14.40
2009,09,22,03,26,14.40
2009,09,22,03,27,14.40
2009,09,22,03,28,14.50
2009,09,22,03,29,14.50
2009,09,22,03,30,14.50
2009,09,22,03,31,14.50
2009,09,22,03,32,14.50
2009,09,22,03,33,14.50
2009,09,22,03,34,14.50
2009,09,22,03,35,14.60
2009,09,22,03,36,14.60
2009,09,22,03,37,14.60
2009,09,22,03,38,14.60
2009,09,22,03,39,14.60
2009,09,22,03,40,14.60
2009,09,22,03,41,14.60
2009,09,22,03,42,14.60
2009,09,22,03,43,14.60
2009,09,22,03,44,14.60
2009,09,22,03,45,14.60
2009,09,22,03,46,14.60
2009,09,22,03,47,14.60
2009,09,22,03,48,14.60
2009,09,22,03,49,14.60
2009,09,22,03,50,14.60
2009,09,22,03,51,14.60
2009,09,22,03,52,14.60
2009,09,22,03,53,14.60
2009,09,22,03,54,14.70
2009,09,22,03,55,14.70
2009,09,22,03,56,14.70
2009,09,22,03,57,14.70
2009,09,22,03,58,14.80
2009,09,22,03,59,14.80
2009,09,22,04,00,14.80
2009,09,22,04,01,14.80
2009,09,22,04,02,14.80
2009,09,22,04,03,14.80
2009,09,22,04,04,14.80
2009,09,22,04,05,14.80
2009,09,22,04,06,14.80
2009,09,22,04,07,14.80
2009,09,22,04,08,14.80
2009,09,22,04,09,14.80
2009,09,22,04,10,14.80
2009,09,22,04,11,14.80
2009,09,22,04,12,14.80
2009,09,22,04,13,14.80
2009,09,22,04,14,14.80
2009,09,22,04,15,14.80
2009,09,22,04,16,14.80
2009,09,22,04,17,14.80
2009,09,22,04,18,14.80
2009,09,22,04,19,14.80
2009,09,22,04,20,14.80
2009,09,22,04,21,14.80
2009,09,22,04,22,14.80
2009,09,22,04,23,14.90
2009,09,22,04,24,14.90
2009,09,22,04,25,14.90
2009,09,22,04,26,14.90
2009,09,22,04,27,14.90
2009,09,22,04,28,14.90
2009,09,22,04,29,15.00
2009,09,22,04,30,15.00
2009,09,22,04,31,15.00
2009,09,22,04,32,15.00
2009,09,22,04,33,15.00
2009,09,22,04,34,15.00
2009,09,22,04,35,15.00
2009,09,22,04,36,15.00
2009,09,22,04,37,15.00
2009,09,22,04,38,15.00
2009,09,22,04,39,15.00
2009,09,22,04,40,15.00
2009,09,22,04,41,15.00
2009,09,22,04,42,15.00
2009,09,22,04,43,15.00
2009,09,22,04,44,15.00
2009,09,22,04,45,15.00
2009,09,22,04,46,15.00
2009,09,22,04,47,15.00
2009,09,22,04,48,15.00
2009,09,22,04,49,15.00
2009,09,22,04,50,14.90
2009,09,22,04,51,14.90
2009,09,22,04,52,14.90
2009,09,22,04,53,14.80
2009,09,22,04,54,14.80
2009,09,22,04,55,14.70
2009,09,22,04,56,14.70
2009,09,22,04,57,14.70
2009,09,22,04,58,14.60
2009,09,22,04,59,14.60
2009,09,22,05,00,14.60
2009,09,22,05,01,14.60
2009,09,22,05,02,14.60
2009,09,22,05,03,14.50
2009,09,22,05,04,14.50
2009,09,22,05,05,14.50
2009,09,22,05,06,14.50
2009,09,22,05,07,14.50
2009,09,22,05,08,14.50
2009,09,22,05,09,14.50
2009,09,22,05,10,14.50
2009,09,22,05,11,14.50
2009,09,22,05,12,14.40
2009,09,22,05,13,14.40
2009,09,22,05,14,14.40
2009,09,22,05,15,14.30
2009,09,22,05,16,14.30
2009,09,22,05,17,14.20
2009,09,22,05,18,14.20
2009,09,22,05,19,14.20
2009,09,22,05,20,14.10
2009,09,22,05,21,14.10
2009,09,22,05,22,14.00
2009,09,22,05,23,14.00
2009,09,22,05,24,14.00
2009,09,22,05,25,13.90
2009,09,22,05,26,13.90
2009,09,22,05,27,13.90
2009,09,22,05,28,13.90
2009,09,22,05,29,13.90
2009,09,22,05,30,13.90
2009,09,22,05,31,13.90
2009,09,22,05,32,13.90
2009,09,22,05,33,13.90
2009,09,22,05,34,13.90
2009,09,22,05,35,13.90
2009,09,22,05,36,14.00
2009,09,22,05,37,14.00
2009,09,22,05,38,14.00
2009,09,22,05,39,14.10
2009,09,22,05,40,14.10
2009,09,22,05,41,14.10
2009,09,22,05,42,14.10
2009,09,22,05,43,14.10
2009,09,22,05,44,14.10
2009,09,22,05,45,14.10
2009,09,22,05,46,14.10
2009,09,22,05,47,14.10
2009,09,22,05,48,14.10
2009,09,22,05,49,14.10
2009,09,22,05,50,14.10
2009,09,22,05,51,14.10
2009,09,22,05,52,14.10
2009,09,22,05,53,14.10
2009,09,22,05,54,14.10
2009,09,22,05,55,14.10
2009,09,22,05,56,14.10
2009,09,22,05,57,14.10
2009,09,22,05,58,14.10
2009,09,22,05,59,14.00
2009,09,22,06,00,14.00
2009,09,22,06,01,14.00
2009,09,22,06,02,14.00
2009,09,22,06,03,13.90
2009,09,22,06,04,13.90
2009,09,22,06,05,13.90
2009,09,22,06,06,13.90
2009,09,22,06,07,14.00
2009,09,22,06,08,14.00
2009,09,22,06,09,14.00
2009,09,22,06,10,14.00
2009,09,22,06,11,14.00
2009,09,22,06,12,14.00
2009,09,22,06,13,14.00
2009,09,22,06,14,14.00
2009,09,22,06,15,14.10
2009,09,22,06,16,14.10
2009,09,22,06,17,14.10
2009,09,22,06,18,14.20
2009,09,22,06,19,14.20
2009,09,22,06,20,14.20
2009,09,22,06,21,14.30
2009,09,22,06,22,14.30
2009,09,22,06,23,14.30
2009,09,22,06,24,14.30
2009,09,22,06,25,14.30
2009,09,22,06,26,14.30
2009,09,22,06,27,14.30
2009,09,22,06,28,14.30
2009,09,22,06,29,14.30
2009,09,22,06,30,14.30
2009,09,22,06,31,14.30
2009,09,22,06,32,14.30
2009,09,22,06,33,14.20
2009,09,22,06,34,14.20
2009,09,22,06,35,14.20
2009,09,22,06,36,14.20
2009,09,22,06,37,14.20
2009,09,22,06,38,14.20
2009,09,22,06,39,14.20
2009,09,22,06,40,14.20
2009,09,22,06,41,14.20
2009,09,22,06,42,14.20
2009,09,22,06,43,14.20
2009,09,22,06,44,14.20
2009,09,22,06,45,14.20
2009,09,22,06,46,14.20
2009,09,22,06,47,14.20
2009,09,22,06,48,14.20
2009,09,22,06,49,14.20
2009,09,22,06,50,14.10
2009,09,22,06,51,14.10
2009,09,22,06,52,14.00
2009,09,22,06,53,14.00
2009,09,22,06,54,13.90
2009,09,22,06,55,13.90
2009,09,22,06,56,13.80
2009,09,22,06,57,13.80
2009,09,22,06,58,13.70
2009,09,22,06,59,13.70
2009,09,22,07,00,13.70
2009,09,22,07,01,13.70
2009,09,22,07,02,13.70
2009,09,22,07,03,13.60
2009,09,22,07,04,13.60
2009,09,22,07,05,13.60
2009,09,22,07,06,13.50
2009,09,22,07,07,13.50
2009,09,22,07,08,13.50
2009,09,22,07,09,13.50
2009,09,22,07,10,13.50
2009,09,22,07,11,13.40
2009,09,22,07,12,13.40
2009,09,22,07,13,13.40
2009,09,22,07,14,13.40
2009,09,22,07,15,13.40
2009,09,22,07,16,13.40
2009,09,22,07,17,13.40
2009,09,22,07,18,13.30
2009,09,22,07,19,13.30
2009,09,22,07,20,13.30
2009,09,22,07,21,13.30
2009,09,22,07,22,13.30
2009,09,22,07,23,13.30
2009,09,22,07,24,13.30
2009,09,22,07,25,13.30
2009,09,22,07,26,13.30
2009,09,22,07,27,13.30
2009,09,22,07,28,13.30
2009,09,22,07,29,13.30
2009,09,22,07,30,13.40
2009,09,22,07,31,13.40
2009,09,22,07,32,13.40
2009,09,22,07,33,13.40
2009,09,22,07,34,13.50
2009,09,22,07,35,13.50
2009,09,22,07,36,13.50
2009,09,22,07,37,13.50
2009,09,22,07,38,13.60
2009,09,22,07,39,13.60
2009,09,22,07,40,13.60
2009,09,22,07,41,13.70
2009,09,22,07,42,13.70
2009,09,22,07,43,13.70
2009,09,22,07,44,13.70
2009,09,22,07,45,13.70
2009,09,22,07,46,13.70
2009,09,22,07,47,13.80
2009,09,22,07,48,13.80
2009,09,22,07,49,13.80
2009,09,22,07,50,13.80
2009,09,22,07,51,13.90
2009,09,22,07,52,13.90
2009,09,22,07,53,13.90
2009,09,22,07,54,14.00
2009,09,22,07,55,14.00
2009,09,22,07,56,14.00
2009,09,22,07,57,14.00
2009,09,22,07,58,14.00
2009,09,22,07,59,14.00
2009,09,22,08,00,14.00
2009,09,22,08,01,14.10
2009,09,22,08,02,14.10
2009,09,22,08,03,14.10
2009,09,22,08,04,14.10
2009,09,22,08,05,14.10
2009,09,22,08,06,14.20
2009,09,22,08,07,14.20
2009,09,22,08,08,14.20
2009,09,22,08,09,14.20
2009,09,22,08,10,14.20
2009,09,22,08,11,14.20
2009,09,22,08,12,14.20
2009,09,22,08,13,14.20
2009,09,22,08,14,14.30
2009,09,22,08,15,14.30
2009,09,22,08,16,14.40
2009,09,22,08,17,14.50
2009,09,22,08,18,14.50
2009,09,22,08,19,14.60
2009,09,22,08,20,14.70
2009,09,22,08,21,14.80
2009,09,22,08,22,15.00
2009,09,22,08,23,15.10
2009,09,22,08,24,15.20
2009,09,22,08,25,15.30
2009,09,22,08,26,15.50
2009,09,22,08,27,15.50
2009,09,22,08,28,15.70
2009,09,22,08,29,15.80
2009,09,22,08,30,15.80
2009,09,22,08,31,15.90
2009,09,22,08,32,16.10
2009,09,22,08,33,16.10
2009,09,22,08,34,16.10
2009,09,22,08,35,16.10
2009,09,22,08,36,16.20
2009,09,22,08,37,16.20
2009,09,22,08,38,16.20
2009,09,22,08,39,16.30
2009,09,22,08,40,16.30
2009,09,22,08,41,16.40
2009,09,22,08,42,16.40
2009,09,22,08,43,16.40
2009,09,22,08,44,16.40
2009,09,22,08,45,16.60
2009,09,22,08,46,16.60
2009,09,22,08,47,16.60
2009,09,22,08,48,16.70
2009,09,22,08,49,16.70
2009,09,22,08,50,16.70
2009,09,22,08,51,16.70
2009,09,22,08,52,16.70
2009,09,22,08,53,16.70
2009,09,22,08,54,16.70
2009,09,22,08,55,16.80
2009,09,22,08,56,16.80
2009,09,22,08,57,16.80
2009,09,22,08,58,16.80
2009,09,22,08,59,16.90
2009,09,22,09,00,16.90
2009,09,22,09,01,16.90
2009,09,22,09,02,16.90
2009,09,22,09,03,16.90
2009,09,22,09,04,16.90
2009,09,22,09,05,16.90
2009,09,22,09,06,16.90
2009,09,22,09,07,17.00
2009,09,22,09,08,17.00
2009,09,22,09,09,17.00
2009,09,22,09,10,17.10
2009,09,22,09,11,17.10
2009,09,22,09,12,17.20
2009,09,22,09,13,17.20
2009,09,22,09,14,17.30
2009,09,22,09,15,17.30
2009,09,22,09,16,17.30
2009,09,22,09,17,17.30
2009,09,22,09,18,17.30
2009,09,22,09,19,17.30
2009,09,22,09,20,17.30
2009,09,22,09,21,17.30
2009,09,22,09,22,17.30
2009,09,22,09,23,17.30
2009,09,22,09,24,17.40
2009,09,22,09,25,17.40
2009,09,22,09,26,17.50
2009,09,22,09,27,17.50
2009,09,22,09,28,17.50
2009,09,22,09,29,17.60
2009,09,22,09,30,17.60
2009,09,22,09,31,17.60
2009,09,22,09,32,17.60
2009,09,22,09,33,17.60
2009,09,22,09,34,17.60
2009,09,22,09,35,17.60
2009,09,22,09,36,17.60
2009,09,22,09,37,17.70
2009,09,22,09,38,17.70
2009,09,22,09,39,17.70
2009,09,22,09,40,17.70
2009,09,22,09,41,17.70
2009,09,22,09,42,17.70
2009,09,22,09,43,17.80
2009,09,22,09,44,17.80
2009,09,22,09,45,17.80
2009,09,22,09,46,17.80
2009,09,22,09,47,17.80
2009,09,22,09,48,17.80
2009,09,22,09,49,17.90
2009,09,22,09,50,17.90
2009,09,22,09,51,17.90
2009,09,22,09,52,17.90
2009,09,22,09,53,17.90
2009,09,22,09,54,17.90
2009,09,22,09,55,17.90
2009,09,22,09,56,18.00
2009,09,22,09,57,18.10
2009,09,22,09,58,18.10
2009,09,22,09,59,18.20
2009,09,22,10,00,18.20
2009,09,22,10,01,18.20
2009,09,22,10,02,18.30
2009,09,22,10,03,18.40
2009,09,22,10,04,18.40
2009,09,22,10,05,18.40
2009,09,22,10,06,18.50
2009,09,22,10,07,18.50
2009,09,22,10,08,18.50
2009,09,22,10,09,18.60
2009,09,22,10,10,18.60
2009,09,22,10,11,18.60
2009,09,22,10,12,18.60
2009,09,22,10,13,18.60
2009,09,22,10,14,18.60
2009,09,22,10,15,18.70
2009,09,22,10,16,18.70
2009,09,22,10,17,18.80
2009,09,22,10,18,18.80
2009,09,22,10,19,18.70
2009,09,22,10,20,18.70
2009,09,22,10,21,18.80
2009,09,22,10,22,18.80
2009,09,22,10,23,18.80
2009,09,22,10,24,18.80
2009,09,22,10,25,18.70
2009,09,22,10,26,18.70
2009,09,22,10,27,18.70
2009,09,22,10,28,18.70
2009,09,22,10,29,18.70
2009,09,22,10,30,18.70
2009,09,22,10,31,18.80
2009,09,22,10,32,18.80
2009,09,22,10,33,18.80
2009,09,22,10,34,18.80
2009,09,22,10,35,18.80
2009,09,22,10,36,18.70
2009,09,22,10,37,18.70
2009,09,22,10,38,18.70
2009,09,22,10,39,18.80
2009,09,22,10,40,18.70
2009,09,22,10,41,18.80
2009,09,22,10,42,18.80
2009,09,22,10,43,18.80
2009,09,22,10,44,18.80
2009,09,22,10,45,18.80
2009,09,22,10,46,18.80
2009,09,22,10,47,18.80
2009,09,22,10,48,18.80
2009,09,22,10,49,18.80
2009,09,22,10,50,18.80
2009,09,22,10,51,18.90
2009,09,22,10,52,18.90
2009,09,22,10,53,18.90
2009,09,22,10,54,18.90
2009,09,22,10,55,18.90
2009,09,22,10,56,18.90
2009,09,22,10,57,18.90
2009,09,22,10,58,18.90
2009,09,22,10,59,18.90
2009,09,22,11,00,18.90
2009,09,22,11,01,19.00
2009,09,22,11,02,19.10
2009,09,22,11,03,19.10
2009,09,22,11,04,19.20
2009,09,22,11,05,19.20
2009,09,22,11,06,19.20
2009,09,22,11,07,19.10
2009,09,22,11,08,19.10
2009,09,22,11,09,19.20
2009,09,22,11,10,19.20
2009,09,22,11,11,19.20
2009,09,22,11,12,19.20
2009,09,22,11,13,19.20
2009,09,22,11,14,19.30
2009,09,22,11,15,19.30
2009,09,22,11,16,19.40
2009,09,22,11,17,19.40
2009,09,22,11,18,19.40
2009,09,22,11,19,19.40
2009,09,22,11,20,19.50
2009,09,22,11,21,19.60
2009,09,22,11,22,19.60
2009,09,22,11,23,19.60
2009,09,22,11,24,19.60
2009,09,22,11,25,19.60
2009,09,22,11,26,19.60
2009,09,22,11,27,19.60
2009,09,22,11,28,19.60
2009,09,22,11,29,19.60
2009,09,22,11,30,19.70
2009,09,22,11,31,19.80
2009,09,22,11,32,19.80
2009,09,22,11,33,19.80
2009,09,22,11,34,19.80
2009,09,22,11,35,19.80
2009,09,22,11,36,19.80
2009,09,22,11,37,19.90
2009,09,22,11,38,19.80
2009,09,22,11,39,19.80
2009,09,22,11,40,19.80
2009,09,22,11,41,19.90
2009,09,22,11,42,19.90
2009,09,22,11,43,20.00
2009,09,22,11,44,20.10
2009,09,22,11,45,20.10
2009,09,22,11,46,20.10
2009,09,22,11,47,20.20
2009,09,22,11,48,20.20
2009,09,22,11,49,20.20
2009,09,22,11,50,20.20
2009,09,22,11,51,20.20
2009,09,22,11,52,20.20
2009,09,22,11,53,20.10
2009,09,22,11,54,20.10
2009,09,22,11,55,20.10
2009,09,22,11,56,20.20
2009,09,22,11,57,20.20
2009,09,22,11,58,20.20
2009,09,22,11,59,20.20
2009,09,22,12,00,20.20
2009,09,22,12,01,20.30
2009,09,22,12,02,20.30
2009,09,22,12,03,20.40
2009,09,22,12,04,20.40
2009,09,22,12,05,20.40
2009,09,22,12,06,20.40
2009,09,22,12,07,20.50
2009,09,22,12,08,20.50
2009,09,22,12,09,20.60
2009,09,22,12,10,20.60
2009,09,22,12,11,20.70
2009,09,22,12,12,20.70
2009,09,22,12,13,20.70
2009,09,22,12,14,20.70
2009,09,22,12,15,20.70
2009,09,22,12,16,20.60
2009,09,22,12,17,20.60
2009,09,22,12,18,20.60
2009,09,22,12,19,20.60
2009,09,22,12,20,20.50
2009,09,22,12,21,20.50
2009,09,22,12,22,20.50
2009,09,22,12,23,20.60
2009,09,22,12,24,20.80
2009,09,22,12,25,20.80
2009,09,22,12,26,20.80
2009,09,22,12,27,20.70
2009,09,22,12,28,20.70
2009,09,22,12,29,20.70
2009,09,22,12,30,20.60
2009,09,22,12,31,20.60
2009,09,22,12,32,20.70
2009,09,22,12,33,20.70
2009,09,22,12,34,20.60
2009,09,22,12,35,20.60
2009,09,22,12,36,20.50
2009,09,22,12,37,20.50
2009,09,22,12,38,20.40
2009,09,22,12,39,20.40
2009,09,22,12,40,20.40
2009,09,22,12,41,20.30
2009,09,22,12,42,20.30
2009,09,22,12,43,20.30
2009,09,22,12,44,20.30
2009,09,22,12,45,20.30
2009,09,22,12,46,20.30
2009,09,22,12,47,20.30
2009,09,22,12,48,20.30
2009,09,22,12,49,20.30
2009,09,22,12,50,20.30
2009,09,22,12,51,20.40
2009,09,22,12,52,20.50
2009,09,22,12,53,20.60
2009,09,22,12,54,20.70
2009,09,22,12,55,20.80
2009,09,22,12,56,20.90
2009,09,22,12,57,20.90
2009,09,22,12,58,20.90
2009,09,22,12,59,21.00
2009,09,22,13,00,21.00
2009,09,22,13,01,20.90
2009,09,22,13,02,20.90
2009,09,22,13,03,20.90
2009,09,22,13,04,20.90
2009,09,22,13,05,20.90
2009,09,22,13,06,20.90
2009,09,22,13,07,20.90
2009,09,22,13,08,21.00
2009,09,22,13,09,21.00
2009,09,22,13,10,21.10
2009,09,22,13,11,21.20
2009,09,22,13,12,21.30
2009,09,22,13,13,21.30
2009,09,22,13,14,21.30
2009,09,22,13,15,21.30
2009,09,22,13,16,21.30
2009,09,22,13,17,21.30
2009,09,22,13,18,21.30
2009,09,22,13,19,21.30
2009,09,22,13,20,21.30
2009,09,22,13,21,21.30
2009,09,22,13,22,21.30
2009,09,22,13,23,21.30
2009,09,22,13,24,21.30
2009,09,22,13,25,21.30
2009,09,22,13,26,21.30
2009,09,22,13,27,21.30
2009,09,22,13,28,21.30
2009,09,22,13,29,21.30
2009,09,22,13,30,21.30
2009,09,22,13,31,21.30
2009,09,22,13,32,21.40
2009,09,22,13,33,21.40
2009,09,22,13,34,21.60
2009,09,22,13,35,21.60
2009,09,22,13,36,21.60
2009,09,22,13,37,21.60
2009,09,22,13,38,21.60
2009,09,22,13,39,21.60
2009,09,22,13,40,21.60
2009,09,22,13,41,21.60
2009,09,22,13,42,21.60
2009,09,22,13,43,21.60
2009,09,22,13,44,21.70
2009,09,22,13,45,21.80
2009,09,22,13,46,21.90
2009,09,22,13,47,22.00
2009,09,22,13,48,22.10
2009,09,22,13,49,22.20
2009,09,22,13,50,22.20
2009,09,22,13,51,22.20
2009,09,22,13,52,22.20
2009,09,22,13,53,22.20
2009,09,22,13,54,22.00
2009,09,22,13,55,22.00
2009,09,22,13,56,21.90
2009,09,22,13,57,22.00
2009,09,22,13,58,22.00
2009,09,22,13,59,22.00
2009,09,22,14,00,22.00
2009,09,22,14,01,21.90
2009,09,22,14,02,21.90
2009,09,22,14,03,21.90
2009,09,22,14,04,21.90
2009,09,22,14,05,22.00
2009,09,22,14,06,22.00
2009,09,22,14,07,22.10
2009,09,22,14,08,22.10
2009,09,22,14,09,22.10
2009,09,22,14,10,22.20
2009,09,22,14,11,22.20
2009,09,22,14,12,22.20
2009,09,22,14,13,22.20
2009,09,22,14,14,22.20
2009,09,22,14,15,22.30
2009,09,22,14,16,22.30
2009,09,22,14,17,22.30
2009,09,22,14,18,22.20
2009,09,22,14,19,22.10
2009,09,22,14,20,22.10
2009,09,22,14,21,22.20
2009,09,22,14,22,22.30
2009,09,22,14,23,22.30
2009,09,22,14,24,22.40
2009,09,22,14,25,22.40
2009,09,22,14,26,22.40
2009,09,22,14,27,22.40
2009,09,22,14,28,22.50
2009,09,22,14,29,22.60
2009,09,22,14,30,22.60
2009,09,22,14,31,22.60
2009,09,22,14,32,22.60
2009,09,22,14,33,22.60
2009,09,22,14,34,22.60
2009,09,22,14,35,22.60
2009,09,22,14,36,22.60
2009,09,22,14,37,22.60
2009,09,22,14,38,22.60
2009,09,22,14,39,22.70
2009,09,22,14,40,22.70
2009,09,22,14,41,22.80
2009,09,22,14,42,22.80
2009,09,22,14,43,22.90
2009,09,22,14,44,22.90
2009,09,22,14,45,22.90
2009,09,22,14,46,22.90
2009,09,22,14,47,23.00
2009,09,22,14,48,23.10
2009,09,22,14,49,23.10
2009,09,22,14,50,23.00
2009,09,22,14,51,23.00
2009,09,22,14,52,23.10
2009,09,22,14,53,23.10
2009,09,22,14,54,22.90
2009,09,22,14,55,22.90
2009,09,22,14,56,22.90
2009,09,22,14,57,22.80
2009,09,22,14,58,22.80
2009,09,22,14,59,22.70
2009,09,22,15,00,22.70
2009,09,22,15,01,22.60
2009,09,22,15,02,22.60
2009,09,22,15,03,22.60
2009,09,22,15,04,22.60
2009,09,22,15,05,22.60
2009,09,22,15,06,22.60
2009,09,22,15,07,22.60
2009,09,22,15,08,22.70
2009,09,22,15,09,22.70
2009,09,22,15,10,22.70
2009,09,22,15,11,22.70
2009,09,22,15,12,22.70
2009,09,22,15,13,22.70
2009,09,22,15,14,22.70
2009,09,22,15,15,22.80
2009,09,22,15,16,22.80
2009,09,22,15,17,22.90
2009,09,22,15,18,22.90
2009,09,22,15,19,22.90
2009,09,22,15,20,22.90
2009,09,22,15,21,22.90
2009,09,22,15,22,22.90
2009,09,22,15,23,22.90
2009,09,22,15,24,22.80
2009,09,22,15,25,22.80
2009,09,22,15,26,22.80
2009,09,22,15,27,22.90
2009,09,22,15,28,22.90
2009,09,22,15,29,22.90
2009,09,22,15,30,22.90
2009,09,22,15,31,22.90
2009,09,22,15,32,23.00
2009,09,22,15,33,23.10
2009,09,22,15,34,23.10
2009,09,22,15,35,23.10
2009,09,22,15,36,23.10
2009,09,22,15,37,23.10
2009,09,22,15,38,23.10
2009,09,22,15,39,23.10
2009,09,22,15,40,23.10
2009,09,22,15,41,23.10
2009,09,22,15,42,23.10
2009,09,22,15,43,23.10
2009,09,22,15,44,23.00
2009,09,22,15,45,23.10
2009,09,22,15,46,23.00
2009,09,22,15,47,23.00
2009,09,22,15,48,23.10
2009,09,22,15,49,23.10
2009,09,22,15,50,23.20
2009,09,22,15,51,23.30
2009,09,22,15,52,23.30
2009,09,22,15,53,23.20
2009,09,22,15,54,23.10
2009,09,22,15,55,23.10
2009,09,22,15,56,23.00
2009,09,22,15,57,22.90
2009,09,22,15,58,22.90
2009,09,22,15,59,23.00
2009,09,22,16,00,23.10
2009,09,22,16,01,23.10
2009,09,22,16,02,23.20
2009,09,22,16,03,23.30
2009,09,22,16,04,23.30
2009,09,22,16,05,23.40
2009,09,22,16,06,23.40
2009,09,22,16,07,23.40
2009,09,22,16,08,23.50
2009,09,22,16,09,23.60
2009,09,22,16,10,23.60
2009,09,22,16,11,23.60
2009,09,22,16,12,23.70
2009,09,22,16,13,23.70
2009,09,22,16,14,23.60
2009,09,22,16,15,23.60
2009,09,22,16,16,23.60
2009,09,22,16,17,23.60
2009,09,22,16,18,23.60
2009,09,22,16,19,23.60
2009,09,22,16,20,23.60
2009,09,22,16,21,23.60
2009,09,22,16,22,23.60
2009,09,22,16,23,23.60
2009,09,22,16,24,23.70
2009,09,22,16,25,23.70
2009,09,22,16,26,23.70
2009,09,22,16,27,23.70
2009,09,22,16,28,23.70
2009,09,22,16,29,23.70
2009,09,22,16,30,23.70
2009,09,22,16,31,23.70
2009,09,22,16,32,23.60
2009,09,22,16,33,23.70
2009,09,22,16,34,23.70
2009,09,22,16,35,23.60
2009,09,22,16,36,23.60
2009,09,22,16,37,23.70
2009,09,22,16,38,23.70
2009,09,22,16,39,23.60
2009,09,22,16,40,23.60
2009,09,22,16,41,23.60
2009,09,22,16,42,23.60
2009,09,22,16,43,23.60
2009,09,22,16,44,23.60
2009,09,22,16,45,23.70
2009,09,22,16,46,23.70
2009,09,22,16,47,23.70
2009,09,22,16,48,23.70
2009,09,22,16,49,23.70
2009,09,22,16,50,23.70
2009,09,22,16,51,23.80
2009,09,22,16,52,23.80
2009,09,22,16,53,23.80
2009,09,22,16,54,23.80
2009,09,22,16,55,23.80
2009,09,22,16,56,23.80
2009,09,22,16,57,23.90
2009,09,22,16,58,23.90
2009,09,22,16,59,23.90
2009,09,22,17,00,23.90
2009,09,22,17,01,23.90
2009,09,22,17,02,23.90
2009,09,22,17,03,23.90
2009,09,22,17,04,23.90
2009,09,22,17,05,23.90
2009,09,22,17,06,23.90
2009,09,22,17,07,23.80
2009,09,22,17,08,23.80
2009,09,22,17,09,23.80
2009,09,22,17,10,23.80
2009,09,22,17,11,23.80
2009,09,22,17,12,23.80
2009,09,22,17,13,23.80
2009,09,22,17,14,23.90
2009,09,22,17,15,23.90
2009,09,22,17,16,23.90
2009,09,22,17,17,23.90
2009,09,22,17,18,23.90
2009,09,22,17,19,24.00